Location: Grisols
(45.0093°N, 3.1167°E)
Time: 07:06:11
(UTC+00:00)

Daily predictions for brighter satellites

Satellite Brightness Start Highest point End
(mag) Time Altitude Azimuth Time Altitude Azimuth Time Altitude Azimuth
Meteor 2-10 4.2 17:15:00 10° SSE 17:19:50 47° E 17:24:39 10° NNE
COBE Rocket 4.3 17:15:55 10° NNE 17:20:52 46° E 17:25:40 10° S
Nadezhda 3 Rocket 4.2 17:16:04 10° S 17:22:22 84° W 17:28:47 10° N
Cosmos 1535 Rocket 4.5 17:20:30 10° N 17:26:41 67° E 17:32:45 10° SSE
Unknown 4.1 17:23:28 10° NW 17:26:42 33° NNE 17:29:55 10° E
YAOGAN 6 3.3 17:27:34 10° SE 17:30:50 32° ENE 17:34:06 10° N
Cosmos 292 Rocket 3.7 17:26:25 10° SSW 17:31:08 79° ESE 17:35:54 10° NNE
Cosmos 1833 Rocket 3.0 17:28:42 10° NNW 17:34:08 47° ENE 17:39:33 10° SE
Lacrosse 5 rocket 4.2 17:33:56 10° W 17:36:12 15° SW 17:38:31 10° SSW
NOSS 3-2 (A) 4.0 17:34:03 10° S 17:39:07 34° ESE 17:44:43 10° NE
SMAP 4.2 17:37:59 10° S 17:42:28 48° W 17:46:59 10° NNW
Ariane Rocket 4.1 17:38:39 10° ESE 17:42:38 24° ENE 17:46:38 10° N
Cosmos 2228 3.9 17:38:58 10° SSW 17:43:14 54° WNW 17:47:30 10° N
Cosmos 1328 3.7 17:39:17 10° N 17:43:17 85° E 17:47:13 10° S
Cosmos 1271 Rocket 4.5 17:39:45 10° NNW 17:43:29 39° W 17:47:13 10° SSW
SKYMED 2 3.7 17:40:40 10° NNE 17:44:56 55° E 17:49:12 10° S
YAOGAN 1 2.9 17:40:58 10° SE 17:45:02 41° ENE 17:49:07 10° N
Cosmos 921 Rocket 4.4 17:46:19 10° SW 17:50:36 43° WNW 17:54:52 10° N
Cosmos 1300 3.8 17:49:32 10° SE 17:52:35 23° E 17:55:38 10° NE
Cosmos 1939 Rocket 3.9 17:50:29 10° SE 17:53:50 26° ENE 17:57:15 10° N
Shenzhou-11 Module 3.1 17:51:42 10° W 17:54:15 33° SSW 17:56:17 14° SE
Abrixas rocket 2.1 17:52:36 10° WSW 17:55:40 70° NNW 17:57:37 20° ENE
CZ-2D R/B 4.1 17:53:37 10° SE 17:57:00 30° ENE 18:00:24 10° N
CSL-04 Debris 4.1 17:57:52 10° SSE 18:03:16 70° ENE 18:08:44 10° N
Cosmos 1777 Rocket 4.2 17:59:12 10° NNW 18:04:24 74° WSW 18:09:34 10° SSE
NOSS 3-2 (C) 4.0 17:59:47 10° S 18:04:52 34° ESE 18:09:34 14° NE
Cosmos 2082 Rocket 2.3 17:59:26 10° NNW 18:05:06 57° ENE 18:10:40 10° SE
BREEZE-M DEB (TANK) 3.9 18:01:20 10° WNW 18:05:47 81° NNE 18:18:49 11° ESE
Cosmos 1153 Rocket 4.4 18:04:14 10° N 18:10:19 62° E 18:16:23 10° SSE
ASTEX 1 3.8 18:05:41 10° N 18:10:37 69° W 18:15:34 10° SSW
USA 116 3.2 18:07:49 10° NNE 18:11:03 63° ESE 18:14:33 10° S
Unknown 3.0 18:14:29 10° NW 18:17:54 81° NNE 18:19:12 35° ESE
Cosmos 1461 3.2 18:16:21 10° NW 18:20:26 68° WSW 18:24:39 10° SSE
Lacrosse 5 1.8 18:19:18 10° NW 18:24:23 86° NE 18:27:30 24° SE
CZ-4 R/B 2.2 18:20:34 10° S 18:24:41 56° W 18:28:52 10° NNW
SJ 16-02 2.7 18:22:51 10° N 18:25:45 22° NE 18:25:45 22° NE
FALCON 9 DEB 3.0 18:23:37 10° NW 18:27:06 82° NNE 18:28:00 47° ESE
In-Cosmos 22 Rocket 4.4 18:23:54 10° N 18:29:06 45° ENE 18:32:45 19° SE
ATLAS 3B R/B 3.1 18:26:18 10° S 18:32:25 38° ESE 18:35:04 28° ENE
COSMO-SKYMED 1 3.7 18:28:49 10° N 18:32:59 46° WNW 18:37:07 10° SW
Cosmos 2084 Rocket 3.4 18:30:07 10° NW 18:34:32 73° NE 18:36:05 39° SE
ATLAS 5 CENTAUR R/B 4.3 18:32:17 10° NW 18:34:33 13° NNW 18:36:58 10° N
Unknown 3.9 18:35:55 10° NW 18:39:30 42° NNE 18:39:39 42° NNE
CENTAUR R/B 2.7 18:34:36 10° S 18:40:07 44° ESE 18:42:36 31° ENE
Falcon 9 debris 3.2 18:38:22 10° WNW 18:41:48 69° SW 18:42:11 61° S
H-2A R/B 3.2 18:42:58 27° NE 18:42:58 27° NE 18:46:49 10° N
Unknown 3.0 18:38:53 10° WNW 18:42:25 89° SSW 18:42:37 79° SE
Gbstr 26 Del rocket 4.3 18:36:36 10° WNW 18:42:44 67° SW 18:47:36 22° SE
Cosmos 1459 Rocket 3.9 18:38:48 10° N 18:45:01 66° E 18:51:18 10° SSE
Cosmos 2278 Rocket 3.2 18:39:40 10° SW 18:45:07 46° WNW 18:50:36 10° NNE
Cosmos 2061 Rocket 4.1 18:40:34 10° N 18:46:37 50° ENE 18:49:21 31° SE
Cosmos 1898 Rocket 3.5 18:43:35 10° NNW 18:48:48 58° ENE 18:50:02 46° ESE
Cosmos 2297 3.6 18:43:13 10° SSW 18:48:51 67° ESE 18:53:21 17° NNE
Okean 3 Rocket 3.6 18:56:13 10° N 19:00:14 62° NE 19:00:14 62° NE
Cosmos 1076 Rocket 4.2 18:56:44 10° NNW 19:01:00 54° W 19:05:12 10° S
ARGOS 4.0 19:05:13 34° NE 19:05:13 34° NE 19:08:54 10° N
Unknown 4.1 19:00:36 10° WNW 19:03:31 47° WSW 19:03:31 47° WSW
USA 238 DEB 4.1 18:59:51 10° SW 19:06:28 61° NW 19:12:35 14° NNE
USA 238 4.1 18:59:57 10° SW 19:06:35 61° NW 19:12:38 14° NNE
Cosmos 44 3.2 19:04:13 10° SW 19:09:10 84° WNW 19:09:47 68° NNE
Cosmos 2058 3.5 19:07:25 10° NNW 19:11:34 56° W 19:13:00 36° SSW
Cosmos 2173 Rocket 4.0 19:07:06 10° N 19:13:21 77° W 19:19:29 10° S
Cosmos 1864 Rocket 4.3 19:12:39 10° N 19:18:48 67° E 19:18:59 67° E
Ariane Rocket 3.8 19:16:20 10° S 19:21:16 50° W 19:26:15 10° NNW
Cosmos 1802 Rocket 4.1 19:15:36 10° N 19:22:03 81° W 19:26:33 21° S
Cosmos 2151 4.4 19:18:25 10° N 19:20:43 31° N 19:20:43 31° N
MOS 1 4.3 19:20:54 39° S 19:23:04 77° WSW 19:28:46 10° NNW
Cosmos 2123 Rocket 3.8 19:18:37 10° S 19:24:52 72° E 19:31:08 10° NNE
Cosmos 468 Rocket 4.1 19:22:16 10° SSW 19:27:32 75° WNW 19:28:19 62° N
NOSS 3-2 (A) 4.2 19:24:00 10° WSW 19:29:41 50° NW 19:33:49 21° NNE
CZ-2C R/B 4.4 19:38:10 32° NNE 19:38:10 32° NNE 19:41:20 10° N
Cosmos 1725 Rocket 3.8 19:29:37 10° N 19:35:57 88° E 19:36:08 85° SE
Cosmos 1937 Rocket 4.0 19:35:17 10° NNW 19:39:25 56° NW 19:39:25 56° NW
Cosmos 990 Rocket 4.5 19:35:41 10° NNW 19:40:47 56° WSW 19:40:47 56° WSW
Cosmos 2082 Rocket 4.3 19:44:21 10° NW 19:48:44 23° W 19:53:04 10° SSW
ADEOS Rocket 3.3 19:44:10 10° NNE 19:51:53 89° ESE 19:58:56 10° SSW
NOSS 3-2 (C) 4.1 19:49:46 10° WSW 19:55:28 50° NW 19:57:04 41° N
SJ 16-02 3.7 20:01:03 10° NW 20:02:45 21° NW 20:02:45 21° NW
Lacrosse 5 4.1 20:03:23 10° W 20:06:45 18° WSW 20:06:45 18° WSW
ATLAS CENTAUR R/B 4.4 20:06:06 10° NNW 20:06:23 11° NNW 20:06:23 11° NNW
H-2A R/B 3.8 20:23:36 30° NW 20:23:36 30° NW 20:26:37 10° NNW
ATLAS 3B R/B 3.3 20:16:26 10° WSW 20:22:24 49° WNW 20:22:24 49° WNW
CENTAUR R/B 3.6 20:24:54 10° WSW 20:29:52 42° WNW 20:29:52 42° WNW
